Погода Идринское

Погода Идринское : погода сейчас, прогноз погоды и архив. Всё, что Вы хотите узнать о погоде Идринское!

Хотите узнать прогноз погоды Идринское? Тогда Вам сюда: Погода Идринское

Поиск расширенной информации на нашем сайте:

Другие новости

Новости СМИ2

Главная страница сайта

Новости сайта

03.07.2017

Напоминаем, что на нашем специализированном сайте Метеоцентр.Азия вы можете получить высокодетализированные автоматические прогнозы погоды по пунктам России, СНГ и мира в авиационном формате (включающие направление и скорость ветра, видимость, явления погоды, количество и форму облачности, нижнюю и верхнюю границу облачности).

Рекомендуем: Сайт где репетиторы по физике в Москве могут выложить свои предложения.

Погода Идринское - сегодня

Время (UTC), дата Ветер
(°,м/с) 
Видим.   Явления Облачность Т
(°С)
Тd
(°С)
f(%) Тe
(°С)
Pmin
(гПа)
dP
(гПа)
Po
(мм)
O2
(г/м3)
Тmin Tmax R s Состояние
почвы
03 21.09.17 120 (ЮВ) 20000 м    9/4 1000 м средняя, верхняя 
[Cu hum|Ac trans|Ci fib]
+8.3 +5.6 83 +8  1016.4  -2  737  287           
06 21.09.17 130 (ЮВ) 20000 м    10/10 1000 м кучево-дожд. 
[Cb cap]
+11 +4.5 64 +10  1011.6  -4.4  733  283           
09 21.09.17 150 (ЮВ) 20000 м  слаб. ливневой дождь  10/10 1000 м кучево-дожд. 
[Cb cap]
+9.7 +5.8 77 +10  1008.2  -3.4  731  283           
12 21.09.17 140 (ЮВ) 20000 м  слаб. ливневой дождь  10/10 1000 м кучево-дожд. 
[Cb cap]
+8.4 +6.8 90 +9  1005.2  -3  729  284    +11.4     
15 21.09.17 тихо ()   20000 м  {ливн. осадки}  10/10 1000 м кучево-дожд. 
[Cb cap]
+8.1 +7.6 97 +8  1002.5  -2.6  727  283           
18 21.09.17 тихо ()   20000 м  слаб. ливневой дождь  10/10 1000 м кучево-дожд. 
[Cb cap]
+7.3 +7 98 +7  1001.6  -1  726  284           
21 21.09.17 тихо ()   20000 м  слаб. ливневой дождь  10/10 1000 м кучево-дожд. 
[Cb cap]
+8 +7.7 98 +8  1001.1  -0.4  726  283           
00 22.09.17 270 (З) 20000 м  {ливн. осадки}  10/10 1000 м кучево-дожд. 
[Cb cap]
+8.3 +7.9 97 +8  1002.4  1.3  727  283  +7.1       
03 22.09.17 280 (З) 20000 м    10/10 1000 м кучево-дожд. 
[Cb cap]
+9.1 +6.4 83 +8  1004.2  1.8  728  283           
06 22.09.17 280 (З) 20000 м    10/10 1000 м кучево-дожд. 
[Cb cap]
+9.7 +5.3 74 +9  1005.2  1.1  729  283           
09 22.09.17 300 (СЗ) 20000 м    10/10 1000 м кучево-дожд. 
[Cb cap]
+10.5 +5.4 71 +10  1006.5  1.4  730  282           
12 22.09.17 290 (З) 20000 м    9/8 1000 м кучево-дожд., верхняя 
[Cb cap|Ci fib]
+8.5 +4.7 77 +8  1009.5  2.6  732  285    +11.1       
15 22.09.17 тихо ()   20000 м    9/9 1000 м кучево-дожд. 
[Cb cap]
+6.6 +5 90 +7  1012  2.2  733  288           
18 22.09.17 130 (ЮВ) 20000 м    9/8 1000 м верхняя 
[Sc|Ci fib]
+5 +4.4 96 +6  1013.1  0.8  734  290           
21 22.09.17 100 (В) 20000 м  слаб. ливневой дождь  10/10 1000 м кучево-дожд. 
[Cb cap]
+5.2 +4.8 97 +6  1013.4  0.3  734  290           
00 23.09.17 120 (ЮВ) 20000 м  {ливн. осадки}  10/10 1000 м кучево-дожд. 
[Cb cap]
+4.7 +4.3 97 +6  1013.3  -0.2  734  290  +4.1    0.0     
03 23.09.17 110 (В) 20000 м    9/8 1000 м кучево-дожд., средняя, верхняя 
[Cb cap|Ac trans|Ci fib]
+8.6 +5.5 81 +8  1011.9  -0.8  734  286           
06 23.09.17 170 (Ю) 20000 м    9/8 1000 м верхняя 
[Cu med, cong|Ci fib]
+11.6 +4.2 60 +12  1009.7  -1.8  732  282           
09 23.09.17 180 (Ю) 20000 м    9/8 1000 м кучево-дожд., средняя, верхняя 
[Cb cap|Ac trans|Ci fib]
+12.7 +3.5 53 +14  1008.1  -1.5  731  281           
12 23.09.17 020 (С) 20000 м    10/10 1000 м 
[Sc]
+9.8 +4 67 +11  1007  -1.3  730  283    +12.7       
15 23.09.17 290 (З) 20000 м    10/10 1000 м кучево-дожд. 
[Cb cap]
+8.2 +5.4 82 +8  1006.6  -0.6  730  284           
18 23.09.17 270 (З) 20000 м  слаб. ливневой дождь  10/10 1000 м кучево-дожд. 
[Cb cap]
+6.5 +6 97 +6  1007.3  0.5  730  286           
21 23.09.17 270 (З) 20000 м  слаб. ливневой дождь  10/10 1000 м кучево-дожд. 
[Cb cap]
+4.4 +4 97 +3  1009.2  1.5  731  289           
00 24.09.17 280 (З) 20000 м  слаб. ливневой дождь  10/10 1000 м кучево-дожд. 
[Cb cap]
+2.5 +2 96 1011.1  1.6  732  292  +2.3    10     
03 24.09.17 270 (З) 10 км  слаб. ливневой дождь  10/10 1000 м кучево-дожд. 
[Cb cap]
+1.3 +1 98 -1  1012.8  1.5  734  294  +1.3         
Время (UTC), дата Ветер
(°,м/с) 
Видим.   Явления Облачность Т
(°С)
Тd
(°С)
f(%) Тe
(°С)
Pmin
(гПа)
dP
(гПа)
Po
(мм)
O2
(г/м3)
Тmin Tmax R s Состояние
почвы

Для получения пояснительной информации подведите курсор к названию столбца.

ПОГОДА Идринское - архив

Всё, что Вы хотите узнать о погоде Идринское - удобно и подробно!

Выберите нужную дату (начиная с 1 января 2015* года) и нажмите кнопку "Найти".
Будут отображены архивные сводки погоды по пункту Идринское, начиная с указанной даты.


Отображать данные в формате CSV (для использования в таблицах Excel)


Внимание! Наш архив погоды предназначен исключительно для личного некоммерческого использования в познавательных целях. Если Вам необходимы официальные справки о состоянии погоды (для производственных, юридических, коммерческих и т.п. целей), обращайтесь в органы Росгидромета.

*Примечание: данная дата относится к архиву по метеостанциям СССР (Россия, СНГ, Балтия).
Архив по метеостанциям Зарубежной Европы и Азии (кроме Китая) хранится 10 дней, по другим регионам земного шара (Китай, Африка, Америка, Австралия, Океания) - 1 день.

Идринское - район местоположения метеостанции


Название, широта, долгота, высота метеостанции:
Идринское 54.4°ш. 92.1°д. 282 м над ур. моря [Российская Федерация]

Дополнительная информация

В oтличие oт бoльшинства пoгoдных сайтoв мы публикуем пoдрoбную метеoинфoрмацию в детальнoм прoфессиoнальнoм фoрмате.

Характеристики температуры и влажнoсти вoздуха измеряются на высoте 2 м в тени вдали oт зданий и деревьев.
Скoрoсть ветра измеряется на высoте 10 м (на урoвне рoста челoвека скoрoсть ветра ниже в 1.5-2 раза). Если метеoстанция нахoдится в гoрoде или в лесу, тo скoрoсть ветра занижена на 2-4 м/с пo сравнению с oткрытым местoм. Скoрoсть ветра над акватoриями крупных рек и oзёр, а также на вершинах хoлмoв на 2-5 м/с выше, чем в oбычных услoвиях.
Атмoсфернoе давление в разных тoчках местнoсти мoжет значительнo oтличаться oт давления на метеoстанции, в зависимoсти oт услoвий рельефа (при пoдъёме на 10 м давление пoнижается примернo на 1 мм рт.ст.).